Theta_e
336 329 329 329 317 316 309 310 317 313 313 317 317 314 312 313 309 306 330 329 328 342 349 349 355 354 353 352 352 351 351 351 349 347 344 341 340 339 339 337 336 335 335 336 338 339 343 343 343
324 326 333 326 315 309 309 316 312 314 316 317 316 315 313 311 316 319 323 330 329 338 348 348 355 354 354 353 353 353 352 351 349 346 345 343 341 341 340 339 339 338 337 337 337 338 340 342 343
335 336 326 319 315 309 308 314 313 315 317 315 314 317 314 314 318 320 330 331 332 337 340 354 355 354 355 354 354 354 353 350 347 344 343 342 343 342 341 341 341 340 339 338 337 338 339 343 344
335 330 326 313 309 313 314 314 316 314 316 317 315 311 318 322 321 324 328 328 328 328 336 353 357 356 355 353 354 354 350 349 347 343 341 341 342 343 342 340 340 340 340 339 337 338 341 342 344
333 324 314 312 311 314 318 318 316 313 313 314 315 310 314 321 325 326 327 327 327 333 335 344 353 349 347 346 348 350 347 345 343 342 341 341 340 340 339 340 340 340 340 340 337 338 340 342 342
319 320 309 307 309 314 317 318 315 313 314 314 313 312 316 324 324 325 326 328 327 331 335 341 347 346 344 347 346 341 338 336 337 337 337 338 338 337 337 337 337 337 339 339 338 337 339 341 342
317 314 309 310 309 311 315 319 315 314 312 313 316 310 318 322 324 327 328 329 332 331 333 336 337 343 344 343 339 335 331 331 332 333 333 334 334 334 335 336 336 337 339 339 338 338 339 340 340
319 315 309 310 309 310 317 318 319 316 313 319 317 310 312 322 326 326 325 324 325 326 325 332 335 330 335 336 336 335 332 332 331 332 332 331 331 332 334 336 336 337 338 338 338 337 336 339 340
323 310 307 309 309 311 316 315 319 321 316 317 317 315 319 324 324 322 323 321 322 324 329 329 329 331 334 334 334 335 336 334 332 332 330 329 330 331 332 336 337 336 337 337 337 337 337 338 339
315 309 309 315 315 312 314 314 316 315 315 315 315 318 320 321 321 319 319 319 321 323 327 329 330 333 336 330 337 337 335 335 334 332 331 331 331 331 331 333 333 335 335 336 336 336 336 334 332
315 310 314 315 317 315 313 313 316 313 311 315 313 316 318 318 320 319 318 320 322 326 328 327 332 335 337 334 335 333 333 333 334 333 332 331 330 330 331 333 333 333 334 332 332 332 332 330 329
311 315 316 316 317 314 311 314 314 314 315 318 317 317 318 318 318 319 319 324 321 326 329 333 336 336 339 337 333 332 334 333 330 332 332 331 330 330 332 331 332 332 333 331 332 331 333 330 329
314 315 316 317 315 314 314 313 314 314 318 319 318 317 317 319 320 324 327 328 325 327 328 334 335 339 341 339 336 335 335 331 332 332 332 331 329 329 330 331 330 330 330 330 330 332 331 328 329
316 316 314 315 314 314 312 313 314 315 318 316 316 316 317 318 320 323 325 326 327 329 331 334 336 339 339 338 337 336 336 334 334 333 328 330 331 329 330 330 330 330 330 331 331 331 331 331 333
315 310 312 313 314 312 315 310 310 316 317 316 316 317 318 319 319 321 324 328 330 329 333 334 335 336 337 337 338 337 336 336 334 334 330 329 332 330 331 330 330 329 330 329 331 331 332 332 335
310 310 304 311 313 314 313 305 313 316 316 316 316 316 317 319 320 323 325 329 332 331 333 335 330 336 338 341 338 338 337 338 337 337 332 328 331 332 331 330 330 330 330 329 329 330 331 330 331
307 302 304 307 313 312 311 307 313 316 316 316 317 317 317 319 322 326 325 328 331 332 334 335 337 334 339 339 333 335 339 339 340 337 330 328 329 333 333 330 331 331 329 329 330 328 329 330 330
301 302 304 305 310 311 309 309 313 315 315 316 317 318 318 319 320 324 326 328 330 332 336 337 336 339 341 336 335 331 340 340 339 335 330 329 329 332 333 330 330 332 329 328 329 329 330 330 331
306 305 305 309 312 310 309 311 312 315 314 315 316 318 320 320 323 324 326 328 329 332 335 337 337 340 338 333 334 336 336 338 335 336 334 332 331 331 333 331 330 332 329 328 328 330 328 328 330
305 304 304 308 311 309 308 308 312 313 314 315 315 316 319 320 320 322 325 328 328 330 334 336 337 339 338 337 340 338 337 337 337 337 335 334 331 333 333 331 330 330 329 330 328 331 327 327 329
305 304 305 305 308 310 308 306 309 312 315 315 317 318 319 320 319 321 323 326 327 329 333 334 337 338 339 340 338 338 336 334 337 335 332 331 333 333 333 332 331 330 332 329 328 329 327 327 329
302 308 308 306 304 299 308 298 307 309 311 313 313 316 317 320 321 322 323 325 327 326 331 335 337 337 337 339 338 337 332 329 334 334 334 330 333 332 332 332 331 332 332 329 329 330 328 327 325
305 310 308 307 304 303 303 300 303 310 308 310 312 314 318 321 321 321 323 325 325 327 330 334 337 337 340 341 339 336 335 334 335 334 332 332 329 333 332 332 333 331 330 331 330 330 329 331 329
310 308 307 306 303 297 302 300 300 305 307 309 311 313 318 320 321 322 325 326 324 326 328 334 336 336 339 340 338 338 333 332 332 330 330 331 332 330 332 332 333 332 331 333 333 332 330 332 332
308 305 297 295 294 294 303 300 303 310 310 310 310 314 319 321 320 321 322 322 323 323 327 330 333 332 335 337 337 336 334 331 332 330 328 329 329 329 330 332 333 334 333 335 335 334 332 333 332
306 305 297 292 292 295 305 299 303 310 312 312 313 316 321 320 321 321 322 322 321 323 325 327 330 330 332 333 336 338 334 333 332 330 329 329 330 330 331 332 334 334 333 333 334 332 333 332 331
305 301 306 300 301 297 300 305 310 312 310 311 313 318 320 321 321 321 323 323 323 324 326 329 331 331 332 332 336 337 335 334 335 335 332 328 332 332 332 333 333 334 333 332 332 332 332 333 331
309 308 299 300 292 292 297 300 301 306 308 312 315 318 321 321 320 321 322 323 324 325 327 331 332 330 332 333 335 334 332 336 335 337 334 329 332 333 331 332 332 332 333 333 334 333 333 331 329
305 303 304 304 300 294 293 298 311 310 313 316 316 320 321 319 318 321 321 324 323 323 324 329 330 328 330 331 333 334 333 336 334 333 333 328 329 331 331 330 332 332 332 331 334 332 331 330 329
308 305 306 299 299 301 299 300 314 315 314 317 317 319 319 319 319 320 321 323 320 321 324 326 330 325 327 329 330 334 335 336 334 333 334 330 331 332 332 333 332 332 333 334 332 330 330 328 327
Wind_Speed
9 11 9 9 7 9 14 11 12 8 13 13 8 6 10 9 11 5 5 8 5 15 13 15 16 16 14 13 12 11 11 10 10 10 11 11 11 11 11 11 10 8 9 10 12 11 11 12 13
12 11 10 7 11 14 1 12 6 10 11 10 5 5 5 7 13 10 12 6 8 12 13 13 17 16 15 13 12 11 11 10 10 10 10 11 13 14 13 12 12 11 10 12 12 13 12 13 13
9 15 9 9 15 15 5 6 10 12 3 2 9 2 2 8 9 6 10 5 6 2 9 14 19 17 15 14 12 11 10 9 10 10 12 12 14 14 14 14 14 14 13 12 13 12 13 13 14
8 8 8 11 18 7 9 7 8 9 12 6 3 5 7 7 8 8 8 5 3 5 10 15 14 13 12 12 10 10 9 9 10 12 12 13 13 13 13 15 16 16 17 14 14 12 12 13 14
10 8 12 19 18 6 17 11 6 8 9 10 7 3 4 9 10 11 7 3 1 2 9 12 12 9 6 6 7 7 7 7 8 10 10 10 11 13 14 14 17 18 17 17 15 13 11 10 11
8 11 13 16 18 9 9 5 5 9 11 4 4 1 7 13 9 7 8 6 1 5 6 7 11 9 6 6 5 3 1 3 6 8 10 11 13 15 16 17 17 19 17 19 17 14 11 10 10
13 12 17 20 20 20 18 4 4 10 9 8 10 6 4 14 9 7 7 6 2 3 4 5 7 8 11 11 8 6 3 2 6 8 11 13 14 16 17 17 17 18 18 18 18 15 12 10 10
13 13 21 18 18 17 8 5 9 10 7 6 2 4 4 11 11 7 7 10 8 9 6 3 7 4 7 9 12 10 8 5 4 9 10 10 12 15 18 17 17 18 17 18 18 16 13 11 10
18 14 16 22 22 15 13 14 10 8 6 12 5 4 7 10 10 8 7 8 6 4 6 6 1 5 4 4 6 11 8 7 7 9 7 3 5 8 9 13 17 16 17 17 17 16 13 11 10
17 15 23 22 21 15 17 14 17 16 13 13 12 11 11 11 11 10 9 8 10 6 3 4 7 6 2 6 3 2 4 2 3 4 5 3 6 6 9 9 7 9 13 14 16 13 14 11 5
22 21 22 23 20 17 19 17 17 17 11 8 7 2 16 12 10 10 11 10 8 5 2 6 4 3 1 4 3 2 3 0 2 5 4 4 5 6 5 3 3 4 9 6 10 9 6 8 7
24 26 24 25 18 18 19 22 18 13 10 10 2 1 13 14 10 9 10 3 7 5 3 3 4 4 2 2 5 5 1 2 4 5 5 4 4 5 4 3 4 4 4 7 5 4 6 8 9
27 26 24 17 14 22 24 22 18 13 11 6 4 7 7 7 11 7 3 3 7 2 4 1 4 1 0 3 4 4 2 4 5 6 6 5 4 3 5 4 4 4 6 6 6 6 6 7 7
23 24 21 17 25 24 22 18 16 20 10 3 6 8 11 11 9 7 7 4 5 3 2 3 2 2 3 3 5 4 3 5 4 5 5 4 3 3 4 4 3 4 4 5 5 6 6 6 7
23 25 23 22 20 22 20 20 16 19 12 17 12 12 11 7 10 11 10 6 4 3 3 3 4 7 5 7 5 4 4 4 4 4 2 1 4 4 6 5 3 4 4 7 5 6 5 4 4
23 26 21 22 22 24 22 18 15 17 14 17 14 11 13 14 11 9 10 9 6 3 4 3 3 2 4 2 3 3 5 3 3 3 1 3 5 5 5 4 2 4 4 5 5 6 4 5 5
20 18 25 23 22 23 22 18 16 17 14 14 11 11 10 9 10 8 9 9 6 5 3 3 1 4 2 4 5 4 4 2 2 2 3 3 7 6 4 4 3 3 4 5 5 6 6 4 4
19 23 21 22 23 21 14 17 16 18 19 11 17 14 11 9 13 12 10 9 8 5 4 3 3 2 2 5 4 2 1 1 3 3 3 5 5 6 4 4 4 4 4 5 4 6 5 6 5
25 23 23 22 16 9 15 21 17 13 14 18 16 9 7 10 12 13 11 9 7 6 5 5 4 3 2 5 1 0 1 2 4 3 4 7 5 7 4 4 5 4 5 6 8 4 5 5 5
27 25 23 20 18 14 14 14 13 15 17 19 17 13 8 12 15 14 12 9 8 6 6 5 5 2 3 4 2 1 0 2 1 1 1 2 4 6 4 5 6 6 4 5 7 6 3 3 4
26 24 21 22 17 16 15 14 15 21 18 13 12 5 3 14 13 15 14 11 9 7 6 6 4 2 1 4 4 1 3 3 1 1 1 3 1 3 4 5 4 5 4 4 5 5 3 4 1
24 24 24 17 15 12 14 13 13 15 16 11 5 8 10 15 14 15 14 12 9 8 7 6 4 3 4 4 5 5 3 4 2 2 3 1 2 3 4 4 5 6 4 6 5 8 2 8 3
22 23 18 13 15 14 15 13 13 14 17 7 1 6 13 15 16 16 15 13 11 8 7 5 5 4 2 1 4 4 4 3 3 2 3 5 3 2 4 4 4 3 2 5 7 7 12 8 7
24 21 11 12 12 13 14 15 13 15 3 4 1 5 13 14 15 15 14 13 10 8 8 6 5 3 3 1 2 3 5 6 4 2 4 4 3 1 4 4 1 2 2 2 5 6 10 8 6
23 12 11 10 11 11 17 17 15 8 9 1 2 5 12 13 14 14 14 13 10 9 8 6 5 5 4 3 2 4 7 8 6 5 5 4 4 4 4 4 2 0 4 3 3 5 7 10 9
21 17 11 11 11 16 21 16 2 5 6 2 2 5 12 13 13 14 14 12 11 10 9 7 6 6 5 4 3 3 8 3 4 5 3 3 4 4 5 4 4 4 5 5 6 5 9 9 7
19 23 17 17 15 12 8 10 13 12 7 9 10 9 12 11 13 14 14 12 11 9 8 6 6 6 4 4 2 1 7 5 5 5 4 3 4 4 5 4 4 5 6 8 9 6 9 10 8
22 19 17 12 15 13 11 14 4 12 6 10 8 7 12 11 13 13 13 11 9 9 7 6 5 5 4 4 4 2 6 5 6 6 5 4 4 5 6 6 7 8 7 9 9 7 9 11 7
19 19 17 14 14 11 9 9 2 11 9 9 8 11 12 13 14 13 13 11 9 10 10 6 6 6 5 4 4 2 5 4 7 6 4 6 3 5 7 8 7 8 7 9 7 8 9 10 9
23 23 17 11 14 10 10 3 11 9 8 7 11 13 14 15 14 14 13 12 10 10 10 8 6 6 6 5 5 2 5 5 7 6 5 6 6 5 6 8 8 7 8 8 9 10 9 10 11
Wind_Direction
189 203 221 232 254 232 261 0 232 327 57 50 13 348 338 312 26 55 111 111 96 114 135 159 160 175 189 199 209 211 219 225 234 240 239 241 249 260 272 284 289 280 276 264 262 261 268 267 272
195 206 232 269 248 278 309 280 327 6 28 24 314 265 283 40 54 114 132 108 91 120 147 157 170 182 193 204 214 217 223 235 250 254 253 249 248 249 259 268 272 274 268 267 256 259 258 264 267
264 233 271 237 247 268 347 279 354 357 357 132 300 157 12 87 71 76 103 114 117 121 162 137 172 186 196 205 217 223 230 240 251 260 260 262 260 257 260 270 272 266 261 257 256 252 256 261 261
218 217 245 252 263 298 299 358 349 359 320 158 208 339 115 90 121 95 122 163 179 220 101 143 159 180 199 215 232 239 248 256 261 267 269 266 266 268 268 262 263 262 256 249 247 249 256 260 268
248 271 259 260 266 349 272 320 17 318 308 330 104 303 60 119 114 126 137 178 221 328 100 129 148 166 188 225 249 260 279 297 293 284 282 281 282 280 274 266 259 256 251 243 239 239 246 267 269
222 228 263 273 308 185 258 21 2 308 299 320 243 238 85 134 142 145 138 161 145 42 76 128 134 134 150 156 159 137 56 330 302 290 288 282 277 276 273 267 260 260 246 237 232 232 240 258 281
252 265 266 279 301 300 318 47 285 296 330 335 8 6 135 157 139 140 136 121 143 148 148 162 138 171 182 181 169 146 153 263 285 292 286 279 275 274 272 266 258 258 242 232 230 224 235 252 268
237 261 274 274 271 285 328 230 238 285 255 355 77 309 12 115 126 149 173 170 181 174 214 117 186 215 171 156 168 170 195 230 266 289 288 286 284 274 266 259 253 251 240 225 223 224 231 236 250
240 253 258 269 282 305 302 312 330 302 199 267 213 191 109 128 153 180 193 211 208 162 163 200 168 48 13 300 181 192 229 207 253 284 313 282 253 273 285 247 235 237 227 219 217 219 223 227 232
234 245 257 268 284 311 313 309 296 302 252 231 198 184 149 159 180 211 200 212 216 197 120 57 61 66 353 280 275 304 292 357 322 299 294 298 299 298 281 290 276 237 215 215 215 208 221 225 229
236 247 253 269 293 304 299 297 284 277 291 276 7 350 158 183 206 211 232 225 67 71 75 65 94 128 359 304 329 300 248 159 242 252 277 255 265 272 270 259 231 201 205 197 203 204 218 210 211
250 249 253 256 276 300 276 276 272 284 287 278 286 299 165 189 204 205 233 160 147 130 73 78 83 103 216 311 307 298 357 47 283 254 209 236 257 247 290 284 231 203 190 202 212 207 203 213 220
252 256 257 275 285 264 261 259 280 275 281 293 278 228 224 204 192 197 156 92 68 114 71 52 74 139 186 248 277 312 283 262 265 270 219 211 241 283 264 232 270 236 190 201 200 214 215 214 215
253 258 265 262 252 257 265 263 260 264 256 243 269 258 240 222 194 155 170 136 155 133 201 125 203 142 230 245 252 267 266 275 262 279 271 129 236 240 268 270 262 244 253 182 195 203 215 242 190
261 263 266 255 253 256 271 259 244 276 229 267 244 233 234 266 215 200 147 166 177 149 180 190 194 201 204 230 234 230 266 250 256 287 125 199 270 245 249 264 233 246 228 181 207 235 215 202 169
254 260 256 259 252 249 236 252 260 246 238 262 243 244 238 222 219 163 147 152 155 231 175 176 278 284 229 280 255 272 263 250 252 257 220 250 267 234 245 259 231 225 204 182 186 227 208 196 185
247 252 253 258 247 251 231 235 237 260 280 248 235 243 248 215 156 139 158 147 157 192 211 203 138 258 320 285 256 280 251 194 207 231 216 233 264 252 216 239 247 192 182 178 193 211 200 178 203
235 239 237 252 259 259 217 241 241 235 248 257 267 244 238 214 160 156 159 161 163 190 170 196 214 242 330 271 254 219 279 188 195 235 239 235 264 252 217 236 217 189 177 192 194 213 175 185 181
244 251 246 252 258 218 236 237 241 255 276 285 291 281 241 183 151 151 158 170 158 189 179 204 193 230 264 281 351 18 327 290 193 211 238 247 231 264 217 229 201 183 190 197 187 162 192 179 175
243 252 261 274 283 287 285 263 280 286 270 264 263 263 254 150 144 154 159 171 165 188 203 180 211 186 276 300 20 336 96 260 25 117 309 320 229 228 205 207 178 177 194 190 189 149 146 107 184
234 244 254 262 274 271 277 270 263 262 269 265 254 218 227 143 161 159 163 175 176 198 177 198 158 157 238 304 297 346 38 344 310 330 64 342 163 183 190 196 194 156 187 170 167 125 99 121 76
232 232 239 254 275 270 282 289 279 294 272 257 236 202 169 154 167 159 166 174 182 191 181 153 155 214 187 12 355 12 3 346 330 18 59 72 155 170 181 206 165 173 200 162 142 129 161 113 151
232 239 242 235 246 259 268 268 277 289 281 231 165 221 176 157 165 164 168 171 181 184 160 159 164 177 136 146 35 347 35 2 354 18 60 83 45 34 164 201 207 171 252 167 142 154 157 143 176
233 237 248 257 260 249 249 259 269 265 324 100 300 226 137 155 156 157 163 165 176 165 156 156 191 160 217 182 59 16 5 360 21 60 65 74 66 85 145 171 221 184 117 201 137 136 141 134 115
224 212 222 224 235 252 248 246 244 280 298 338 318 127 146 144 149 157 165 163 173 171 153 166 176 175 230 107 53 34 65 38 61 59 44 60 56 67 115 106 145 258 168 173 124 119 139 125 110
197 208 219 226 223 243 235 242 263 97 90 73 78 73 122 145 148 160 167 164 168 166 156 211 169 146 221 104 87 66 91 90 76 83 71 49 58 77 121 140 154 186 181 149 148 142 102 102 96
191 211 214 251 252 284 282 219 216 170 166 197 195 140 131 146 150 161 162 169 166 158 159 200 181 159 187 120 128 70 109 99 103 112 99 66 89 100 91 110 121 126 136 139 124 114 109 97 90
220 190 207 231 244 267 279 278 218 138 199 149 126 142 133 147 157 163 164 169 163 154 157 184 165 157 160 157 179 125 114 141 138 156 135 111 70 118 115 99 116 119 131 126 112 116 115 103 95
204 221 198 225 225 225 243 256 276 149 128 120 154 137 145 155 166 164 165 161 170 158 161 183 190 162 143 169 100 199 115 116 94 91 112 118 76 128 113 113 113 119 116 132 117 108 109 110 109
205 217 191 215 219 255 254 239 96 109 136 134 113 137 153 160 170 167 165 164 176 167 163 172 201 156 167 164 132 165 114 99 101 103 111 109 93 68 86 119 121 118 133 140 132 134 134 132 126